Laconia, New Hampshire, United States (03246)
Lat: 43.53N, Lon: 71.47W
Wx Zone: NHZ009
Local Info
Past Weather Observations for Tuesday, October 14, 2014

NOTE: This archive is for the closest National Weather Service station to Laconia. Information may differ from the station used for current weather conditions.

Click here for Long-term Archive

Time Weather Temperature Dewpoint Humidity Pressure Winds Precip Visibility
23:55
Overcast
64°F / 18°C 57°F / 14°C 78% 30.12 in
(1020 mb)
SW 10.4 mph
(SW 17 kph)
- 10SM
23:35
Overcast
64°F / 18°C 57°F / 14°C 78% 30.12 in
(1020 mb)
SSE 10.4 mph
(SSE 17 kph)
- 10SM
23:15
Overcast
64°F / 18°C 57°F / 14°C 78% 30.12 in
(1020 mb)
SSE 9.2 mph
(SSE 15 kph)
- 10SM
22:55
Overcast
64°F / 18°C 57°F / 14°C 78% 30.12 in
(1020 mb)
SSE 8.1 mph
(SSE 13 kph)
- 10SM
22:35
Overcast
64°F / 18°C 57°F / 14°C 78% 30.12 in
(1020 mb)
SSE 5.8 mph
(SSE 9 kph)
- 10SM
22:15
Mostly Cloudy
64°F / 18°C 57°F / 14°C 78% 30.12 in
(1020 mb)
S 6.9 mph
(S 11 kph)
- 10SM
21:55
Partly Cloudy
64°F / 18°C 57°F / 14°C 78% 30.12 in
(1020 mb)
SSE 4.6 mph
(SSE 7 kph)
- 10SM
21:35
Clear
64°F / 18°C 57°F / 14°C 78% 30.12 in
(1020 mb)
SSE 6.9 mph
(SSE 11 kph)
- 10SM
21:15
Partly Cloudy
64°F / 18°C 57°F / 14°C 78% 30.15 in
(1021 mb)
SSE 8.1 mph
(SSE 13 kph)
- 10SM
20:55
Clear
66°F / 19°C 57°F / 14°C 73% 30.15 in
(1021 mb)
SW 9.2 mph
(SW 15 kph)
- 10SM
20:35
Clear
66°F / 19°C 57°F / 14°C 73% 30.12 in
(1020 mb)
SSE 10.4 mph
(SSE 17 kph)
- 10SM
20:15
Clear
64°F / 18°C 59°F / 15°C 83% 30.12 in
(1020 mb)
SSE 6.9 mph
(SSE 11 kph)
- 10SM
19:55
Clear
61°F / 16°C 57°F / 14°C 88% 30.12 in
(1020 mb)
Calm - 10SM
19:35
Clear
61°F / 16°C 55°F / 13°C 83% 30.15 in
(1021 mb)
Calm - 10SM
19:15
Clear
63°F / 17°C 57°F / 14°C 83% 30.15 in
(1021 mb)
Calm - 10SM
18:55
Clear
63°F / 17°C 57°F / 14°C 83% 30.15 in
(1021 mb)
NW 3.5 mph
(NW 6 kph)
- 10SM
18:35
Clear
63°F / 17°C 57°F / 14°C 83% 30.15 in
(1021 mb)
Calm - 10SM
18:15
Partly Cloudy
64°F / 18°C 57°F / 14°C 78% 30.12 in
(1020 mb)
NW 4.6 mph
(NW 7 kph)
- 10SM
17:55
Clear
68°F / 20°C 59°F / 15°C 73% 30.12 in
(1020 mb)
Calm - 10SM
17:35
Clear
70°F / 21°C 59°F / 15°C 69% 30.12 in
(1020 mb)
SSE 3.5 mph
(SSE 6 kph)
- 10SM
17:15
Clear
70°F / 21°C 59°F / 15°C 69% 30.12 in
(1020 mb)
S 5.8 mph
(S 9 kph)
- 10SM
16:55
Partly Cloudy
70°F / 21°C 59°F / 15°C 69% 30.12 in
(1020 mb)
S 4.6 mph
(S 7 kph)
- 10SM
16:35
Overcast
72°F / 22°C 59°F / 15°C 65% 30.12 in
(1020 mb)
SSE 9.2 mph
(SSE 15 kph)
- 10SM
16:15
Mostly Cloudy
72°F / 22°C 59°F / 15°C 65% 30.12 in
(1020 mb)
SSE 12.7 mph
(SSE 20 kph)
- 10SM
15:55
Mostly Cloudy
72°F / 22°C 59°F / 15°C 65% 30.12 in
(1020 mb)
SSE 12.7 mph
(SSE 20 kph)
- 10SM
15:35
Overcast
73°F / 23°C 59°F / 15°C 61% 30.12 in
(1020 mb)
SW 13.8 mph
(SW 22 kph)
- 10SM
15:15
Overcast
73°F / 23°C 61°F / 16°C 65% 30.12 in
(1020 mb)
SW 10.4 mph
(SW 17 kph)
- 10SM
14:55
Overcast
73°F / 23°C 61°F / 16°C 65% 30.12 in
(1020 mb)
S 16.1 mph
(S 26 kph)
- 10SM
14:35
Mostly Cloudy
73°F / 23°C 61°F / 16°C 65% 30.12 in
(1020 mb)
SSE 18.4 mph
(SSE 30 kph)
- 10SM
14:15
Mostly Cloudy
73°F / 23°C 61°F / 16°C 65% 30.12 in
(1020 mb)
S 12.7 mph
(S 20 kph)
- 10SM
13:55
Overcast
73°F / 23°C 61°F / 16°C 65% 30.12 in
(1020 mb)
SSE 11.5 mph
(SSE 19 kph)
- 10SM
13:35
Overcast
73°F / 23°C 61°F / 16°C 65% 30.12 in
(1020 mb)
SSE 12.7 mph
(SSE 20 kph)
- 10SM
13:15
Overcast
73°F / 23°C 61°F / 16°C 65% 30.12 in
(1020 mb)
S 10.4 mph
(S 17 kph)
- 10SM
12:55
Overcast
73°F / 23°C 61°F / 16°C 65% 30.15 in
(1021 mb)
SSE 11.5 mph
(SSE 19 kph)
- 10SM
12:35
Overcast
66°F / 19°C 59°F / 15°C 78% 30.15 in
(1021 mb)
Calm - 10SM
12:15
Overcast
64°F / 18°C 57°F / 14°C 78% 30.15 in
(1021 mb)
Calm - 8SM
11:55
Overcast
64°F / 18°C 57°F / 14°C 78% 30.18 in
(1022 mb)
NE 4.6 mph
(NE 7 kph)
- 10SM
11:35
Overcast
64°F / 18°C 57°F / 14°C 78% 30.18 in
(1022 mb)
NE 5.8 mph
(NE 9 kph)
- 10SM
11:15
Overcast
63°F / 17°C 55°F / 13°C 77% 30.18 in
(1022 mb)
ENE 4.6 mph
(ENE 7 kph)
- 10SM
10:55
Overcast
64°F / 18°C 55°F / 13°C 73% 30.18 in
(1022 mb)
NE 4.6 mph
(NE 7 kph)
- 10SM
10:35
Overcast
63°F / 17°C 55°F / 13°C 77% 30.18 in
(1022 mb)
NNE 3.5 mph
(NNE 6 kph)
- 10SM
10:15
Overcast
63°F / 17°C 57°F / 14°C 83% 30.21 in
(1023 mb)
NE 5.8 mph
(NE 9 kph)
- 10SM
09:55
Overcast
63°F / 17°C 55°F / 13°C 77% 30.21 in
(1023 mb)
ESE 3.5 mph
(ESE 6 kph)
- 10SM
09:35
Overcast
63°F / 17°C 55°F / 13°C 77% 30.21 in
(1023 mb)
E 4.6 mph
(E 7 kph)
- 10SM
09:15
Overcast
63°F / 17°C 55°F / 13°C 77% 30.21 in
(1023 mb)
ENE 3.5 mph
(ENE 6 kph)
- 10SM
08:55
Overcast
64°F / 18°C 57°F / 14°C 78% 30.21 in
(1023 mb)
SW 5.8 mph
(SW 9 kph)
- 10SM
08:35
Overcast
64°F / 18°C 57°F / 14°C 78% 30.21 in
(1023 mb)
SSW 5.8 mph
(SSW 9 kph)
- 10SM
08:15
Overcast
63°F / 17°C 55°F / 13°C 77% 30.21 in
(1023 mb)
Calm - 10SM
07:55
Overcast
61°F / 16°C 55°F / 13°C 83% 30.21 in
(1023 mb)
SSW 6.9 mph
(SSW 11 kph)
- 10SM
07:35
Overcast
59°F / 15°C 54°F / 12°C 82% 30.21 in
(1023 mb)
SSW 4.6 mph
(SSW 7 kph)
- 10SM
07:15
Overcast
57°F / 14°C 54°F / 12°C 88% 30.21 in
(1023 mb)
NW 3.5 mph
(NW 6 kph)
- 10SM
06:55
Overcast
57°F / 14°C 54°F / 12°C 88% 30.21 in
(1023 mb)
Calm - 10SM
06:35
Overcast
57°F / 14°C 52°F / 11°C 82% 30.21 in
(1023 mb)
Calm - 10SM
06:15
Overcast
57°F / 14°C 52°F / 11°C 82% 30.21 in
(1023 mb)
NW 4.6 mph
(NW 7 kph)
- 10SM
05:55
Overcast
57°F / 14°C 52°F / 11°C 82% 30.21 in
(1023 mb)
SSW 4.6 mph
(SSW 7 kph)
- 10SM
05:35
Overcast
57°F / 14°C 52°F / 11°C 82% 30.21 in
(1023 mb)
WNW 3.5 mph
(WNW 6 kph)
- 10SM
05:15
Overcast
57°F / 14°C 52°F / 11°C 82% 30.21 in
(1023 mb)
SSW 4.6 mph
(SSW 7 kph)
- 10SM
04:55
Overcast
57°F / 14°C 52°F / 11°C 82% 30.21 in
(1023 mb)
SSW 4.6 mph
(SSW 7 kph)
- 10SM
04:35
Overcast
57°F / 14°C 52°F / 11°C 82% 30.21 in
(1023 mb)
Calm - 10SM
04:15
Overcast
57°F / 14°C 52°F / 11°C 82% 30.21 in
(1023 mb)
Calm - 10SM
03:55
Overcast
57°F / 14°C 52°F / 11°C 82% 30.21 in
(1023 mb)
Calm - 10SM
03:35
Overcast
57°F / 14°C 52°F / 11°C 82% 30.21 in
(1023 mb)
SSW 3.5 mph
(SSW 6 kph)
- 10SM
03:15
Overcast
57°F / 14°C 52°F / 11°C 82% 30.21 in
(1023 mb)
SSW 3.5 mph
(SSW 6 kph)
- 10SM
02:55
Overcast
57°F / 14°C 50°F / 10°C 77% 30.21 in
(1023 mb)
SSW 4.6 mph
(SSW 7 kph)
- 10SM
02:35
Overcast
55°F / 13°C 50°F / 10°C 82% 30.18 in
(1022 mb)
Calm - 10SM
02:15
Overcast
55°F / 13°C 50°F / 10°C 82% 30.21 in
(1023 mb)
Calm - 10SM
01:55
Overcast
55°F / 13°C 50°F / 10°C 82% 30.21 in
(1023 mb)
SW 3.5 mph
(SW 6 kph)
- 10SM
01:35
Overcast
55°F / 13°C 48°F / 9°C 77% 30.21 in
(1023 mb)
W 3.5 mph
(W 6 kph)
- 10SM
01:15
Overcast
55°F / 13°C 48°F / 9°C 77% 30.21 in
(1023 mb)
Calm - 10SM
00:55
Overcast
55°F / 13°C 48°F / 9°C 77% 30.21 in
(1023 mb)
SSW 4.6 mph
(SSW 7 kph)
- 10SM
00:35
Overcast
55°F / 13°C 48°F / 9°C 77% 30.21 in
(1023 mb)
SSW 3.5 mph
(SSW 6 kph)
- 10SM
00:15
Mostly Cloudy
55°F / 13°C 48°F / 9°C 77% 30.21 in
(1023 mb)
SSW 3.5 mph
(SSW 6 kph)
- 10SM
Time Weather Temperature Dewpoint Humidity Pressure Winds Precip Visibility


Weather for websites

WeatherForYou.com, LLC is not responsible for any damages or problems caused by this service. Current weather conditions are obtained from the closest station including government and personal stations which may have varying degrees of accuracy. Weather forecasts are derived from the NOAA NDFD. Like all things, this site belongs to Jesus Christ... He just trusts me to maintain it. If you have any questions or comments email webmaster@weatherforyou.com

Copyright © 2014, WeatherForYou.com LLC. All rights reserved.